| time (UTC) | temp F | wind direction | speed MPH | gust MPH | rain 1hr in | rain 24hr in | rain mn in | humidity % | barometer mb |
| 20260506140111 | 46 | 44 | 4.0 | 11.0 | 0.00 | 0.01 | 0.00 | 70 | 1012.5 |
| 20260506134604 | 47 | 360 | 3.0 | 8.0 | 0.00 | 0.01 | 0.00 | 71 | 1012.4 |
| 20260506133106 | 47 | 360 | 2.0 | 8.0 | 0.00 | 0.01 | 0.00 | 73 | 1012.2 |
| 20260506131618 | 46 | 355 | 2.0 | 9.0 | 0.00 | 0.01 | 0.00 | 71 | 1012.1 |
| 20260506124600 | 45 | 360 | 3.0 | 9.0 | 0.00 | 0.01 | 0.00 | 69 | 1011.8 |
| 20260506123058 | 44 | 360 | 2.0 | 8.0 | 0.00 | 0.01 | 0.00 | 70 | 1011.5 |
| 20260506121601 | 43 | 360 | 3.0 | 9.0 | 0.00 | 0.01 | 0.00 | 70 | 1011.4 |
| 20260506120105 | 43 | 0 | 2.0 | 8.0 | 0.00 | 0.01 | 0.00 | 70 | 1011.3 |
| 20260506114610 | 43 | 360 | 2.0 | 6.0 | 0.00 | 0.01 | 0.00 | 69 | 1011.2 |
| 20260506113057 | 42 | 312 | 2.0 | 5.0 | 0.00 | 0.01 | 0.00 | 70 | 1011.0 |
| 20260506111557 | 42 | 0 | 1.0 | 5.0 | 0.00 | 0.01 | 0.00 | 68 | 1010.8 |
| 20260506110058 | 43 | 333 | 1.0 | 3.0 | 0.00 | 0.01 | 0.00 | 67 | 1010.7 |
| 20260506104601 | 43 | 337 | 1.0 | 4.0 | 0.00 | 0.01 | 0.00 | 66 | 1010.3 |
| 20260506103100 | 44 | 346 | 2.0 | 4.0 | 0.00 | 0.01 | 0.00 | 64 | 1010.3 |
| 20260506101557 | 44 | 335 | 2.0 | 5.0 | 0.00 | 0.01 | 0.00 | 63 | 1010.3 |
| 20260506100114 | 45 | 327 | 3.0 | 5.0 | 0.00 | 0.01 | 0.00 | 62 | 1010.0 |
| 20260506094600 | 45 | 325 | 2.0 | 5.0 | 0.00 | 0.01 | 0.00 | 61 | 1009.7 |
| 20260506093100 | 45 | 355 | 2.0 | 9.0 | 0.00 | 0.01 | 0.00 | 61 | 1009.4 |
| 20260506091559 | 45 | 335 | 2.0 | 5.0 | 0.00 | 0.01 | 0.00 | 62 | 1009.4 |
| 20260506090100 | 45 | 355 | 2.0 | 5.0 | 0.00 | 0.01 | 0.00 | 62 | 1009.6 |
| 20260506084605 | 45 | 332 | 3.0 | 8.0 | 0.00 | 0.01 | 0.00 | 61 | 1009.2 |
| 20260506083058 | 46 | 265 | 2.0 | 6.0 | 0.00 | 0.01 | 0.00 | 61 | 1009.3 |
| 20260506081555 | 46 | 322 | 3.0 | 8.0 | 0.00 | 0.01 | 0.00 | 62 | 1009.2 |
| 20260506073057 | 46 | 335 | 1.0 | 8.0 | 0.00 | 0.01 | 0.00 | 60 | 1009.3 |
| 20260506071559 | 47 | 340 | 1.0 | 6.0 | 0.00 | 0.01 | 0.00 | 61 | 1009.2 |
| 20260506061556 | 47 | 306 | 2.0 | 6.0 | 0.00 | 0.01 | 0.00 | 61 | 1009.3 |
| 20260506050104 | 47 | 294 | 1.0 | 4.0 | 0.00 | 0.01 | 0.00 | 62 | 1009.4 |
| 20260506044557 | 48 | 315 | 1.0 | 4.0 | 0.00 | 0.06 | 0.00 | 62 | 1009.4 |
| 20260506043056 | 48 | 317 | 1.0 | 3.0 | 0.00 | 0.06 | 0.00 | 62 | 1009.2 |
| 20260506041602 | 48 | 19 | 0.0 | 5.0 | 0.00 | 0.06 | 0.00 | 62 | 1009.2 |
| 20260506040110 | 48 | 0 | 0.0 | 3.0 | 0.00 | 0.06 | 0.00 | 62 | 1009.3 |
| 20260506034601 | 48 | 303 | 0.0 | 3.0 | 0.00 | 0.06 | 0.06 | 62 | 1009.1 |
| 20260506033056 | 48 | 5 | 0.0 | 4.0 | 0.00 | 0.06 | 0.06 | 61 | 1009.2 |
| 20260506031602 | 48 | 309 | 1.0 | 3.0 | 0.00 | 0.06 | 0.06 | 60 | 1009.3 |
| 20260506030121 | 48 | 302 | 0.0 | 4.0 | 0.00 | 0.06 | 0.06 | 60 | 1009.2 |
| 20260506024601 | 48 | 0 | 0.0 | 4.0 | 0.00 | 0.06 | 0.06 | 59 | 1009.2 |
| 20260506023057 | 49 | 292 | 0.0 | 6.0 | 0.00 | 0.06 | 0.06 | 59 | 1009.2 |
| 20260506021601 | 49 | 0 | 0.0 | 2.0 | 0.00 | 0.06 | 0.06 | 57 | 1009.2 |
| 20260506020055 | 49 | 0 | 0.0 | 5.0 | 0.00 | 0.06 | 0.06 | 57 | 1009.1 |
| 20260506014612 | 49 | 270 | 1.0 | 4.0 | 0.00 | 0.06 | 0.06 | 57 | 1009.0 |
| 20260506013100 | 49 | 294 | 2.0 | 8.0 | 0.00 | 0.06 | 0.06 | 56 | 1008.9 |
| 20260506011556 | 50 | 303 | 1.0 | 7.0 | 0.00 | 0.06 | 0.06 | 55 | 1008.7 |
| 20260506010105 | 50 | 271 | 2.0 | 6.0 | 0.00 | 0.06 | 0.06 | 53 | 1008.7 |
| 20260506004556 | 50 | 267 | 1.0 | 6.0 | 0.00 | 0.06 | 0.06 | 52 | 1008.6 |
| 20260506003058 | 50 | 279 | 3.0 | 8.0 | 0.00 | 0.06 | 0.06 | 51 | 1008.7 |
| 20260506001601 | 51 | 229 | 3.0 | 9.0 | 0.00 | 0.06 | 0.06 | 50 | 1008.8 |
| 20260506000059 | 51 | 309 | 4.0 | 11.0 | 0.00 | 0.06 | 0.06 | 51 | 1008.6 |
| 20260505234557 | 52 | 292 | 3.0 | 9.0 | 0.00 | 0.06 | 0.06 | 50 | 1008.5 |
| 20260505233129 | 52 | 314 | 3.0 | 8.0 | 0.00 | 0.06 | 0.06 | 49 | 1008.3 |
| 20260505231600 | 52 | 330 | 3.0 | 9.0 | 0.00 | 0.06 | 0.06 | 49 | 1008.2 |
| 20260505230058 | 53 | 310 | 5.0 | 10.0 | 0.00 | 0.06 | 0.06 | 53 | 1008.2 |
| 20260505224558 | 53 | 275 | 2.0 | 8.0 | 0.00 | 0.06 | 0.06 | 55 | 1008.2 |
| 20260505223056 | 53 | 290 | 1.0 | 7.0 | 0.00 | 0.06 | 0.06 | 55 | 1008.2 |
| 20260505221603 | 53 | 263 | 4.0 | 10.0 | 0.00 | 0.06 | 0.06 | 55 | 1008.3 |
| 20260505220056 | 53 | 287 | 4.0 | 8.0 | 0.00 | 0.06 | 0.06 | 55 | 1008.3 |
| 20260505214559 | 53 | 270 | 4.0 | 11.0 | 0.00 | 0.06 | 0.06 | 56 | 1008.2 |
| 20260505213113 | 54 | 266 | 1.0 | 7.0 | 0.00 | 0.06 | 0.06 | 60 | 1008.3 |
| 20260505211558 | 54 | 319 | 3.0 | 10.0 | 0.00 | 0.06 | 0.06 | 61 | 1008.2 |
| 20260505210103 | 54 | 279 | 5.0 | 12.0 | 0.00 | 0.06 | 0.06 | 63 | 1008.3 |
| 20260505204557 | 54 | 266 | 4.0 | 13.0 | 0.00 | 0.06 | 0.06 | 64 | 1008.3 |
| 20260505203057 | 54 | 250 | 1.0 | 9.0 | 0.00 | 0.06 | 0.06 | 65 | 1008.3 |
| 20260505201557 | 54 | 237 | 3.0 | 13.0 | 0.00 | 0.06 | 0.06 | 64 | 1008.2 |
| 20260505200056 | 54 | 254 | 2.0 | 12.0 | 0.00 | 0.06 | 0.06 | 62 | 1008.2 |
| 20260505194601 | 55 | 270 | 0.0 | 10.0 | 0.00 | 0.06 | 0.06 | 62 | 1008.2 |
| 20260505193125 | 55 | 355 | 6.0 | 11.0 | 0.00 | 0.06 | 0.06 | 61 | 1008.3 |
| 20260505191605 | 55 | 278 | 3.0 | 12.0 | 0.00 | 0.06 | 0.06 | 65 | 1008.5 |
| 20260505190056 | 55 | 269 | 3.0 | 11.0 | 0.00 | 0.06 | 0.06 | 61 | 1008.5 |
| 20260505184602 | 55 | 266 | 2.0 | 11.0 | 0.00 | 0.06 | 0.06 | 63 | 1008.3 |
| 20260505183056 | 56 | 315 | 2.0 | 12.0 | 0.00 | 0.06 | 0.06 | 64 | 1008.3 |
| 20260505181555 | 56 | 291 | 6.0 | 16.0 | 0.00 | 0.06 | 0.06 | 63 | 1008.2 |
| 20260505180058 | 56 | 289 | 4.0 | 12.0 | 0.00 | 0.06 | 0.06 | 64 | 1007.7 |
| 20260505174556 | 56 | 286 | 3.0 | 9.0 | 0.00 | 0.06 | 0.06 | 68 | 1007.7 |
| 20260505173059 | 54 | 270 | 5.0 | 11.0 | 0.00 | 0.06 | 0.06 | 71 | 1007.6 |
| 20260505171556 | 53 | 287 | 3.0 | 9.0 | 0.00 | 0.06 | 0.06 | 73 | 1007.4 |
| 20260505170057 | 53 | 251 | 4.0 | 8.0 | 0.00 | 0.06 | 0.06 | 76 | 1007.4 |
| 20260505164556 | 52 | 173 | 2.0 | 9.0 | 0.01 | 0.06 | 0.06 | 81 | 1007.8 |
| 20260505163055 | 51 | 0 | 2.0 | 7.0 | 0.01 | 0.06 | 0.06 | 81 | 1007.9 |
| 20260505161556 | 51 | 213 | 3.0 | 10.0 | 0.01 | 0.06 | 0.06 | 81 | 1008.2 |
| 20260505153104 | 53 | 323 | 4.0 | 12.0 | 0.00 | 0.05 | 0.05 | 74 | 1007.7 |
| 20260505151557 | 54 | 280 | 4.0 | 13.0 | 0.00 | 0.05 | 0.05 | 68 | 1007.5 |